Location: Artiguedieu
(43.5000°N, 0.5454°E)
Time: 22:58:29
(UTC+00:00)

HuskySat-1 - Pass Details

Date: 30 September 2021
Orbit: 446 x 459 km, 51.6° (Epoch: 18 October)

Event Time Altitude Azimuth Distance (km) Brightness Sun altitude
Rises 19:20:21 0° 251° (WSW) 2,452 ? -18.8°
Reaches altitude 10° 19:22:31 10° 257° (WSW) 1,585 ? -19.2°
Maximum altitude 19:26:00 50° 334° (NNW) 588 ? -19.8°
Enters shadow 19:27:06 35° 26° (NNE) 749 ? -20.0°
